| time (UTC) | temp F | wind direction | speed MPH | gust MPH | rain 1hr in | rain 24hr in | rain mn in | humidity % | barometer mb |
| 20260504224222 | 40 | 262 | 14.0 | 31.0 | 0.00 | 0.01 | 0.00 | 75 | 1011.0 |
| 20260504224146 | 0 | 262 | 14.0 | 31.0 | 0.00 | 0.01 | 0.00 | 75 | 1011.0 |
| 20260504223649 | 51 | 269 | 18.0 | 31.0 | 0.00 | 0.01 | 0.00 | 73 | 1010.8 |
| 20260504222655 | 51 | 282 | 18.0 | 27.0 | 0.00 | 0.01 | 0.00 | 75 | 1011.1 |
| 20260504222158 | 51 | 283 | 18.0 | 31.0 | 0.00 | 0.01 | 0.00 | 73 | 1011.1 |
| 20260504221928 | 51 | 254 | 20.0 | 31.0 | 0.00 | 0.01 | 0.00 | 73 | 1011.2 |
| 20260504221701 | 51 | 254 | 20.0 | 31.0 | 0.00 | 0.01 | 0.00 | 73 | 1011.2 |
| 20260504221204 | 51 | 279 | 17.0 | 31.0 | 0.00 | 0.01 | 0.00 | 76 | 1011.1 |
| 20260504220707 | 50 | 283 | 17.0 | 31.0 | 0.00 | 0.01 | 0.00 | 76 | 1011.2 |
| 20260504220348 | 50 | 274 | 17.0 | 31.0 | 0.00 | 0.01 | 0.00 | 75 | 1011.2 |
| 20260504220210 | 50 | 274 | 17.0 | 31.0 | 0.00 | 0.01 | 0.00 | 75 | 1011.2 |
| 20260504215712 | 51 | 247 | 22.0 | 33.0 | 0.00 | 0.01 | 0.00 | 75 | 1011.4 |
| 20260504215344 | 51 | 250 | 25.0 | 33.0 | 0.00 | 0.01 | 0.00 | 74 | 1011.3 |
| 20260504215216 | 51 | 250 | 25.0 | 33.0 | 0.00 | 0.01 | 0.00 | 74 | 1011.3 |
| 20260504214719 | 51 | 265 | 15.0 | 31.0 | 0.00 | 0.01 | 0.00 | 76 | 1011.5 |
| 20260504214222 | 51 | 264 | 14.0 | 32.0 | 0.00 | 0.01 | 0.00 | 77 | 1011.4 |
| 20260504213725 | 51 | 253 | 21.0 | 32.0 | 0.00 | 0.01 | 0.00 | 77 | 1011.5 |
| 20260504213342 | 51 | 257 | 18.0 | 30.0 | 0.00 | 0.01 | 0.00 | 77 | 1011.6 |
| 20260504213228 | 51 | 257 | 18.0 | 30.0 | 0.00 | 0.01 | 0.00 | 77 | 1011.6 |
| 20260504212730 | 50 | 269 | 14.0 | 27.0 | 0.00 | 0.01 | 0.00 | 79 | 1011.8 |
| 20260504212234 | 50 | 282 | 15.0 | 26.0 | 0.00 | 0.01 | 0.00 | 81 | 1011.7 |
| 20260504211737 | 49 | 269 | 12.0 | 26.0 | 0.00 | 0.01 | 0.00 | 81 | 1011.9 |
| 20260504211239 | 50 | 280 | 13.0 | 26.0 | 0.00 | 0.01 | 0.00 | 80 | 1011.9 |
| 20260504210245 | 50 | 277 | 14.0 | 23.0 | 0.00 | 0.01 | 0.00 | 81 | 1012.0 |
| 20260504205820 | 50 | 264 | 11.0 | 29.0 | 0.00 | 0.01 | 0.00 | 83 | 1012.0 |
| 20260504205749 | 50 | 264 | 11.0 | 29.0 | 0.00 | 0.01 | 0.00 | 83 | 1012.0 |
| 20260504204754 | 49 | 286 | 15.0 | 26.0 | 0.00 | 0.01 | 0.00 | 85 | 1011.8 |
| 20260504204257 | 49 | 275 | 16.0 | 29.0 | 0.00 | 0.01 | 0.00 | 84 | 1011.7 |
| 20260504203801 | 50 | 282 | 18.0 | 29.0 | 0.00 | 0.01 | 0.00 | 82 | 1012.0 |
| 20260504203303 | 50 | 277 | 14.0 | 28.0 | 0.00 | 0.01 | 0.00 | 84 | 1011.9 |
| 20260504202859 | 49 | 269 | 14.0 | 26.0 | 0.00 | 0.01 | 0.00 | 85 | 1011.9 |
| 20260504202806 | 49 | 269 | 14.0 | 26.0 | 0.00 | 0.01 | 0.00 | 85 | 1011.9 |
| 20260504202310 | 49 | 258 | 16.0 | 26.0 | 0.00 | 0.01 | 0.00 | 85 | 1012.0 |
| 20260504201813 | 49 | 266 | 17.0 | 25.0 | 0.00 | 0.01 | 0.00 | 85 | 1012.0 |
| 20260504201453 | 48 | 289 | 14.0 | 24.0 | 0.00 | 0.01 | 0.00 | 88 | 1012.0 |
| 20260504201351 | 48 | 289 | 14.0 | 24.0 | 0.00 | 0.01 | 0.00 | 88 | 1012.0 |
| 20260504201316 | 48 | 289 | 14.0 | 24.0 | 0.00 | 0.01 | 0.00 | 88 | 1012.0 |
| 20260504200914 | 48 | 290 | 11.0 | 21.0 | 0.00 | 0.01 | 0.00 | 90 | 1012.0 |
| 20260504200819 | 48 | 290 | 11.0 | 21.0 | 0.00 | 0.01 | 0.00 | 90 | 1012.0 |
| 20260504195825 | 47 | 267 | 12.0 | 19.0 | 0.00 | 0.01 | 0.00 | 91 | 1012.1 |
| 20260504195328 | 47 | 276 | 12.0 | 21.0 | 0.00 | 0.01 | 0.00 | 92 | 1012.1 |
| 20260504194831 | 46 | 275 | 14.0 | 24.0 | 0.00 | 0.01 | 0.00 | 92 | 1012.1 |
| 20260504194334 | 46 | 272 | 16.0 | 24.0 | 0.00 | 0.01 | 0.00 | 92 | 1012.1 |
| 20260504193837 | 46 | 252 | 13.0 | 20.0 | 0.00 | 0.01 | 0.00 | 93 | 1012.1 |
| 20260504193340 | 46 | 276 | 11.0 | 22.0 | 0.00 | 0.01 | 0.00 | 94 | 1012.3 |
| 20260504192843 | 46 | 262 | 13.0 | 22.0 | 0.00 | 0.01 | 0.00 | 94 | 1012.0 |
| 20260504192346 | 46 | 286 | 12.0 | 21.0 | 0.00 | 0.01 | 0.00 | 94 | 1011.8 |
| 20260504191849 | 46 | 275 | 8.0 | 25.0 | 0.00 | 0.01 | 0.00 | 94 | 1012.1 |
| 20260504191352 | 46 | 272 | 10.0 | 29.0 | 0.00 | 0.01 | 0.00 | 94 | 1012.1 |
| 20260504190943 | 45 | 262 | 21.0 | 29.0 | 0.00 | 0.01 | 0.00 | 94 | 1012.1 |
| 20260504190855 | 45 | 262 | 21.0 | 29.0 | 0.00 | 0.01 | 0.00 | 94 | 1012.1 |
| 20260504190358 | 45 | 263 | 20.0 | 27.0 | 0.00 | 0.01 | 0.00 | 94 | 1012.1 |
| 20260504185901 | 45 | 261 | 17.0 | 26.0 | 0.00 | 0.01 | 0.00 | 94 | 1012.3 |
| 20260504185404 | 45 | 270 | 10.0 | 27.0 | 0.00 | 0.01 | 0.00 | 94 | 1012.3 |
| 20260504184907 | 46 | 269 | 18.0 | 27.0 | 0.00 | 0.01 | 0.00 | 94 | 1012.3 |
| 20260504184552 | 46 | 262 | 19.0 | 28.0 | 0.00 | 0.01 | 0.00 | 95 | 1013.0 |
| 20260504184410 | 46 | 262 | 19.0 | 28.0 | 0.00 | 0.01 | 0.00 | 95 | 1013.0 |
| 20260504183913 | 45 | 256 | 12.0 | 28.0 | 0.00 | 0.01 | 0.00 | 96 | 1013.0 |
| 20260504183416 | 45 | 267 | 19.0 | 28.0 | 0.00 | 0.01 | 0.00 | 96 | 1013.0 |
| 20260504182919 | 44 | 269 | 21.0 | 27.0 | 0.00 | 0.01 | 0.00 | 97 | 1013.0 |
| 20260504182422 | 44 | 274 | 16.0 | 29.0 | 0.00 | 0.01 | 0.00 | 97 | 1013.0 |
| 20260504181925 | 44 | 275 | 18.0 | 29.0 | 0.00 | 0.01 | 0.00 | 97 | 1012.8 |
| 20260504181428 | 44 | 272 | 18.0 | 28.0 | 0.00 | 0.01 | 0.00 | 97 | 1012.9 |
| 20260504180931 | 44 | 263 | 18.0 | 28.0 | 0.00 | 0.01 | 0.00 | 97 | 1012.8 |
| 20260504180434 | 44 | 268 | 16.0 | 27.0 | 0.00 | 0.01 | 0.00 | 97 | 1012.4 |
| 20260504175937 | 44 | 271 | 17.0 | 30.0 | 0.00 | 0.01 | 0.00 | 97 | 1012.6 |
| 20260504175440 | 44 | 268 | 22.0 | 30.0 | 0.00 | 0.01 | 0.00 | 97 | 1012.4 |
| 20260504174446 | 44 | 265 | 21.0 | 28.0 | 0.00 | 0.01 | 0.00 | 98 | 1012.4 |
| 20260504173949 | 44 | 257 | 19.0 | 27.0 | 0.00 | 0.01 | 0.00 | 98 | 1012.3 |
| 20260504173452 | 43 | 278 | 19.0 | 27.0 | 0.00 | 0.01 | 0.00 | 98 | 1012.2 |
| 20260504173043 | 43 | 264 | 17.0 | 30.0 | 0.00 | 0.01 | 0.00 | 98 | 1012.2 |
| 20260504172955 | 43 | 264 | 17.0 | 30.0 | 0.00 | 0.01 | 0.00 | 98 | 1012.2 |
| 20260504172458 | 43 | 265 | 15.0 | 30.0 | 0.00 | 0.01 | 0.00 | 99 | 1012.0 |
| 20260504172001 | 43 | 260 | 15.0 | 30.0 | 0.00 | 0.01 | 0.00 | 99 | 1012.2 |
| 20260504171618 | 43 | 267 | 16.0 | 28.0 | 0.00 | 0.01 | 0.00 | 99 | 1011.9 |
| 20260504171504 | 43 | 267 | 16.0 | 28.0 | 0.00 | 0.01 | 0.00 | 99 | 1011.9 |
| 20260504170510 | 42 | 273 | 18.0 | 30.0 | 0.00 | 0.01 | 0.00 | 99 | 1011.4 |
| 20260504151119 | 41 | 269 | 17.0 | 32.0 | 0.00 | 0.01 | 0.00 | 100 | 1010.7 |
| 20260504150125 | 41 | 280 | 23.0 | 29.0 | 0.00 | 0.01 | 0.00 | 100 | 1010.6 |
| 20260504141155 | 40 | 276 | 18.0 | 34.0 | 0.00 | 0.01 | 0.01 | 100 | 1010.8 |
| 20260504140658 | 40 | 273 | 24.0 | 34.0 | 0.00 | 0.01 | 0.01 | 100 | 1010.8 |
| 20260504140201 | 40 | 276 | 24.0 | 35.0 | 0.00 | 0.01 | 0.01 | 100 | 1010.4 |
| 20260504130806 | 41 | 273 | 14.0 | 28.0 | 0.00 | 0.01 | 0.01 | 100 | 1009.9 |
| 20260504130734 | 41 | 273 | 14.0 | 28.0 | 0.00 | 0.01 | 0.01 | 100 | 1009.9 |
| 20260504130237 | 41 | 271 | 14.0 | 31.0 | 0.00 | 0.01 | 0.01 | 100 | 1010.0 |
| 20260504120313 | 42 | 265 | 24.0 | 40.0 | 0.01 | 0.01 | 0.01 | 100 | 1009.6 |
| 20260504110349 | 42 | 275 | 26.0 | 39.0 | 0.00 | 0.00 | 0.00 | 99 | 1009.3 |
| 20260504100425 | 43 | 267 | 22.0 | 33.0 | 0.00 | 0.00 | 0.00 | 99 | 1009.5 |
| 20260504081531 | 42 | 266 | 27.0 | 41.0 | 0.00 | 0.00 | 0.00 | 96 | 1010.2 |
| 20260504081034 | 42 | 270 | 27.0 | 41.0 | 0.00 | 0.00 | 0.00 | 97 | 1010.2 |
| 20260504080537 | 42 | 270 | 26.0 | 40.0 | 0.00 | 0.00 | 0.00 | 97 | 1010.3 |
| 20260504070115 | 42 | 278 | 26.0 | 37.0 | 0.00 | 0.00 | 0.00 | 96 | 1010.1 |
| 20260504060152 | 42 | 261 | 23.0 | 34.0 | 0.00 | 0.00 | 0.00 | 97 | 1009.5 |
| 20260504050724 | 43 | 271 | 26.0 | 36.0 | 0.00 | 0.00 | 0.00 | 97 | 1010.4 |
| 20260504050228 | 43 | 268 | 24.0 | 36.0 | 0.00 | 0.00 | 0.00 | 98 | 1010.0 |
| 20260504045731 | 43 | 270 | 24.0 | 36.0 | 0.00 | 0.00 | 0.00 | 98 | 1009.8 |
| 20260504045233 | 43 | 271 | 25.0 | 37.0 | 0.00 | 0.00 | 0.00 | 98 | 1010.3 |
| 20260504044737 | 43 | 260 | 22.0 | 37.0 | 0.00 | 0.00 | 0.00 | 98 | 1010.2 |
| 20260504044239 | 43 | 267 | 16.0 | 34.0 | 0.00 | 0.00 | 0.00 | 99 | 1010.0 |
| 20260504043742 | 43 | 261 | 20.0 | 30.0 | 0.00 | 0.00 | 0.00 | 99 | 1009.9 |
| 20260504043246 | 43 | 266 | 19.0 | 30.0 | 0.00 | 0.00 | 0.00 | 99 | 1009.9 |
| 20260504042749 | 43 | 255 | 15.0 | 29.0 | 0.00 | 0.00 | 0.00 | 99 | 1010.2 |
| 20260504042252 | 43 | 269 | 18.0 | 32.0 | 0.00 | 0.00 | 0.00 | 99 | 1009.9 |
| 20260504041755 | 43 | 264 | 23.0 | 32.0 | 0.00 | 0.00 | 0.00 | 99 | 1009.8 |
| 20260504041257 | 43 | 263 | 21.0 | 32.0 | 0.00 | 0.00 | 0.00 | 99 | 1009.9 |
| 20260504040800 | 43 | 262 | 21.0 | 32.0 | 0.00 | 0.00 | 0.00 | 99 | 1010.0 |
| 20260504040303 | 43 | 273 | 17.0 | 32.0 | 0.00 | 0.00 | 0.00 | 99 | 1010.1 |
| 20260504035806 | 43 | 267 | 21.0 | 32.0 | 0.00 | 0.00 | 0.00 | 99 | 1009.9 |
| 20260504035309 | 43 | 280 | 16.0 | 28.0 | 0.00 | 0.00 | 0.00 | 99 | 1010.0 |
| 20260504034813 | 43 | 272 | 15.0 | 28.0 | 0.00 | 0.00 | 0.00 | 98 | 1010.1 |
| 20260504034315 | 43 | 269 | 17.0 | 28.0 | 0.00 | 0.00 | 0.00 | 98 | 1010.0 |
| 20260504033818 | 43 | 274 | 20.0 | 29.0 | 0.00 | 0.00 | 0.00 | 98 | 1010.1 |
| 20260504033321 | 44 | 270 | 17.0 | 29.0 | 0.00 | 0.00 | 0.00 | 98 | 1010.9 |
| 20260504032327 | 44 | 278 | 16.0 | 26.0 | 0.00 | 0.00 | 0.00 | 98 | 1010.5 |
| 20260504031830 | 44 | 276 | 16.0 | 25.0 | 0.00 | 0.00 | 0.00 | 98 | 1010.6 |
| 20260504031333 | 44 | 278 | 18.0 | 23.0 | 0.00 | 0.00 | 0.00 | 98 | 1010.5 |
| 20260504030339 | 44 | 266 | 16.0 | 27.0 | 0.00 | 0.00 | 0.00 | 98 | 1010.2 |
| 20260504025842 | 44 | 273 | 18.0 | 27.0 | 0.00 | 0.00 | 0.00 | 98 | 1009.9 |
| 20260504025345 | 44 | 283 | 15.0 | 27.0 | 0.00 | 0.00 | 0.00 | 98 | 1009.9 |
| 20260504024849 | 44 | 268 | 16.0 | 30.0 | 0.00 | 0.00 | 0.00 | 97 | 1009.9 |
| 20260504024517 | 44 | 259 | 16.0 | 30.0 | 0.00 | 0.00 | 0.00 | 97 | 1010.0 |
| 20260504024352 | 44 | 259 | 16.0 | 30.0 | 0.00 | 0.00 | 0.00 | 97 | 1010.0 |
| 20260504023855 | 44 | 263 | 15.0 | 27.0 | 0.00 | 0.00 | 0.00 | 97 | 1010.1 |
| 20260504023358 | 45 | 286 | 15.0 | 27.0 | 0.00 | 0.00 | 0.00 | 97 | 1009.9 |
| 20260504022937 | 45 | 281 | 13.0 | 23.0 | 0.00 | 0.00 | 0.00 | 96 | 1010.2 |
| 20260504022901 | 45 | 281 | 13.0 | 23.0 | 0.00 | 0.00 | 0.00 | 96 | 1010.2 |
| 20260504022404 | 45 | 271 | 14.0 | 29.0 | 0.00 | 0.00 | 0.00 | 96 | 1010.1 |
| 20260504021907 | 45 | 278 | 18.0 | 29.0 | 0.00 | 0.00 | 0.00 | 96 | 1010.0 |
| 20260504021410 | 45 | 275 | 13.0 | 23.0 | 0.00 | 0.00 | 0.00 | 95 | 1009.7 |
| 20260504020913 | 46 | 272 | 15.0 | 32.0 | 0.00 | 0.00 | 0.00 | 95 | 1009.9 |
| 20260504020416 | 46 | 269 | 17.0 | 33.0 | 0.00 | 0.00 | 0.00 | 95 | 1009.8 |
| 20260504015919 | 46 | 257 | 22.0 | 35.0 | 0.00 | 0.00 | 0.00 | 94 | 1009.5 |
| 20260504015422 | 47 | 262 | 23.0 | 35.0 | 0.00 | 0.00 | 0.00 | 94 | 1009.6 |
| 20260504014925 | 47 | 270 | 16.0 | 33.0 | 0.00 | 0.00 | 0.00 | 94 | 1009.8 |
| 20260504014428 | 47 | 266 | 24.0 | 35.0 | 0.00 | 0.00 | 0.00 | 93 | 1009.8 |
| 20260504013931 | 48 | 259 | 23.0 | 35.0 | 0.00 | 0.00 | 0.00 | 93 | 1009.6 |
| 20260504013434 | 48 | 269 | 22.0 | 31.0 | 0.00 | 0.00 | 0.00 | 93 | 1009.5 |
| 20260504012440 | 49 | 268 | 22.0 | 31.0 | 0.00 | 0.00 | 0.00 | 92 | 1009.3 |
| 20260504011943 | 49 | 271 | 19.0 | 30.0 | 0.00 | 0.00 | 0.00 | 92 | 1009.4 |
| 20260504011446 | 49 | 266 | 23.0 | 30.0 | 0.00 | 0.00 | 0.00 | 92 | 1010.3 |
| 20260504011144 | 50 | 267 | 18.0 | 27.0 | 0.00 | 0.00 | 0.00 | 92 | 1010.2 |
| 20260504010949 | 50 | 267 | 18.0 | 27.0 | 0.00 | 0.00 | 0.00 | 92 | 1010.2 |
| 20260504010604 | 50 | 265 | 17.0 | 30.0 | 0.00 | 0.00 | 0.00 | 91 | 1010.3 |
| 20260504010451 | 50 | 265 | 17.0 | 30.0 | 0.00 | 0.00 | 0.00 | 91 | 1010.3 |
| 20260504005954 | 50 | 269 | 19.0 | 33.0 | 0.00 | 0.00 | 0.00 | 91 | 1010.2 |
| 20260504005457 | 50 | 269 | 15.0 | 33.0 | 0.00 | 0.00 | 0.00 | 91 | 1010.1 |
| 20260504005000 | 50 | 264 | 23.0 | 31.0 | 0.00 | 0.00 | 0.00 | 91 | 1010.3 |
| 20260504004632 | 50 | 270 | 22.0 | 31.0 | 0.00 | 0.00 | 0.00 | 90 | 1010.0 |
| 20260504004503 | 50 | 270 | 22.0 | 31.0 | 0.00 | 0.00 | 0.00 | 90 | 1010.0 |
| 20260504003510 | 50 | 267 | 21.0 | 30.0 | 0.00 | 0.00 | 0.00 | 90 | 1010.2 |
| 20260504003012 | 50 | 270 | 22.0 | 30.0 | 0.00 | 0.00 | 0.00 | 89 | 1009.9 |
| 20260504002736 | 51 | 263 | 20.0 | 29.0 | 0.00 | 0.00 | 0.00 | 89 | 1009.9 |
| 20260504002515 | 51 | 263 | 20.0 | 29.0 | 0.00 | 0.00 | 0.00 | 89 | 1009.9 |
| 20260504002120 | 51 | 266 | 19.0 | 28.0 | 0.00 | 0.00 | 0.00 | 89 | 1009.8 |
| 20260504002021 | 51 | 266 | 19.0 | 28.0 | 0.00 | 0.00 | 0.00 | 89 | 1009.8 |
| 20260504001025 | 51 | 268 | 20.0 | 30.0 | 0.00 | 0.00 | 0.00 | 89 | 1009.4 |
| 20260504000528 | 51 | 268 | 19.0 | 24.0 | 0.00 | 0.00 | 0.00 | 89 | 1010.1 |
| 20260504000031 | 51 | 260 | 16.0 | 28.0 | 0.00 | 0.00 | 0.00 | 90 | 1010.1 |
| 20260503235534 | 51 | 266 | 20.0 | 28.0 | 0.00 | 0.00 | 0.00 | 89 | 1009.9 |
| 20260503235036 | 51 | 263 | 20.0 | 28.0 | 0.00 | 0.00 | 0.00 | 89 | 1009.8 |
| 20260503234637 | 51 | 267 | 18.0 | 30.0 | 0.00 | 0.00 | 0.00 | 89 | 1009.8 |
| 20260503234540 | 51 | 267 | 18.0 | 30.0 | 0.00 | 0.00 | 0.00 | 89 | 1009.8 |
| 20260503234043 | 51 | 271 | 21.0 | 30.0 | 0.00 | 0.00 | 0.00 | 89 | 1009.9 |
| 20260503233937 | 51 | 271 | 18.0 | 26.0 | 0.00 | 0.00 | 0.00 | 90 | 1009.8 |
| 20260503233744 | 51 | 271 | 18.0 | 26.0 | 0.00 | 0.00 | 0.00 | 90 | 1009.8 |
| 20260503233550 | 51 | 271 | 18.0 | 26.0 | 0.00 | 0.00 | 0.00 | 90 | 1009.8 |
| 20260503233410 | 51 | 269 | 19.0 | 24.0 | 0.00 | 0.00 | 0.00 | 90 | 1009.8 |
| 20260503233134 | 51 | 269 | 19.0 | 24.0 | 0.00 | 0.00 | 0.00 | 90 | 1009.8 |
| 20260503233049 | 51 | 269 | 19.0 | 24.0 | 0.00 | 0.00 | 0.00 | 90 | 1009.8 |
| 20260503232707 | 52 | 261 | 16.0 | 23.0 | 0.00 | 0.00 | 0.00 | 90 | 1009.8 |
| 20260503232552 | 52 | 261 | 16.0 | 23.0 | 0.00 | 0.00 | 0.00 | 90 | 1009.8 |
| 20260503232246 | 52 | 271 | 14.0 | 25.0 | 0.00 | 0.00 | 0.00 | 89 | 1009.8 |
| 20260503232055 | 52 | 271 | 14.0 | 25.0 | 0.00 | 0.00 | 0.00 | 89 | 1009.8 |
| 20260503231558 | 52 | 272 | 17.0 | 30.0 | 0.00 | 0.00 | 0.00 | 88 | 1009.8 |
| 20260503231151 | 53 | 265 | 17.0 | 30.0 | 0.00 | 0.00 | 0.00 | 87 | 1009.8 |
| 20260503231101 | 53 | 265 | 17.0 | 30.0 | 0.00 | 0.00 | 0.00 | 87 | 1009.8 |
| 20260503230603 | 53 | 264 | 18.0 | 28.0 | 0.00 | 0.00 | 0.00 | 86 | 1009.8 |
| 20260503230106 | 53 | 272 | 22.0 | 28.0 | 0.00 | 0.00 | 0.00 | 86 | 1009.7 |
| 20260503225610 | 53 | 269 | 18.0 | 30.0 | 0.00 | 0.00 | 0.00 | 87 | 1010.0 |
| 20260503225113 | 52 | 266 | 19.0 | 30.0 | 0.00 | 0.00 | 0.00 | 88 | 1009.7 |
| 20260503224616 | 52 | 264 | 17.0 | 29.0 | 0.00 | 0.00 | 0.00 | 88 | 1009.8 |